Regional Weather Roundup
Issued by NWS

Home | Current Version | Previous Version | Text Only | Print | Product List | Glossary Off
Versions: 1 2 3 4 5 6 7 8 9 10 11 12 13 14 15 16 17 18 19 20 21 22 23 24 25 26 27 28 29 30 31 32 33 34 35 36 37 38 39 40 41 42 43 44 45 46 47 48 49 50

938
ASUS45 KABQ 270801
RWRNM
NEW MEXICO REGIONAL WEATHER ROUNDUP
NATIONAL WEATHER SERVICE ALBUQUERQUE NM
200 AM MDT SAT AUG 27 2016

NOTE: "FAIR" MEANS FEW OR NO CLOUDS BELOW 12,000 FEET AGL WITH NO
       SIGNIFICANT WEATHER OR OBSTRUCTIONS TO VISION.

      THIS PRODUCT IS RELEASED AS TWO VERSIONS.  ONE VERSION NEAR
      THE TOP OF THE HOUR CONTAINING PRELIMINARY DATA FROM ALBUQUERQUE
      AND OTHER STATIONS.  A FINAL VERSION WITH ADDITIONAL DATA IS
      ISSUED ABOUT 10 MINUTES AFTER THE HOUR.

NMZ501-503-504-510>518-270900-
NORTHWEST PLATEAU/NORTHCENTRAL MOUNTAINS

CITY           SKY/WX    TMP DP  RH WIND       PRES   REMARKS
FARMINGTON     FAIR      64  42  44 CALM      30.16S
LOS ALAMOS     FAIR      59  43  55 SW8       30.28F
SANTA FE       FAIR      58  51  78 CALM      30.22F
TAOS           FAIR      48  39  71 NE6       30.28F
ANGEL FIRE     FAIR      40  38  96 CALM      30.36S

$$
NMZ402-403-502-505>509-270900-
WESTCENTRAL MOUNTAINS/SOUTHWEST MOUNTAINS

CITY           SKY/WX    TMP DP  RH WIND       PRES   REMARKS
GALLUP         MOCLDY    56  45  66 CALM      30.23F
GRANTS         FAIR      51  47  83 CALM      30.26S
SILVER CITY    FAIR      58  55  88 N5        30.19R

$$
NMZ407-409-411-412-270900-
SOUTHERN DESERTS

CITY           SKY/WX    TMP DP  RH WIND       PRES   REMARKS
DEMING         FAIR      68  56  65 NE7       30.12S
LAS CRUCES     MOCLDY    69  56  62 NE3       30.13S
ALAMOGORDO     MOCLDY    64  61  88 E5        30.14F
T OR C         MOCLDY    66  53  63 W3        30.14F

$$
NMZ519>523-270900-
CENTRAL VALLEYS/CENTRAL HIGHLANDS

CITY           SKY/WX    TMP DP  RH WIND       PRES   REMARKS
ALBUQUERQUE    MOCLDY    65  48  54 NE3       30.17S
DOUBLE EAGLE   MOCLDY    55  47  72 CALM      30.19F
MORIARTY ARPT  FAIR      51  47  88 W3        30.24S
CLINES CORNERS MOCLDY    56  48  74 S9        30.28S
BELEN          FAIR      63  44  51 S3        30.16S
SOCORRO        FAIR      65  52  61 S6        30.14S

$$
NMZ524>526-539-540-270900-
SOUTHCENTRAL MOUNTAINS

CITY           SKY/WX    TMP DP  RH WIND       PRES   REMARKS
RUIDOSO        NOT AVBL

$$
NMZ527>531-270900-
NORTHEAST HIGHLANDS/NORTHEAST PLAINS

CITY           SKY/WX    TMP DP  RH WIND       PRES   REMARKS
LAS VEGAS      CLOUDY    54  51  90 S7        30.25S
RATON          FAIR      49  46  90 E5        30.20S
CLAYTON        FAIR      60  56  86 S13       30.13F

$$
NMZ532>537-270900-
EASTCENTRAL PLAINS

CITY           SKY/WX    TMP DP  RH WIND       PRES   REMARKS
TUCUMCARI      FAIR      68  61  78 S10       30.09F
CANNON AFB     FAIR      64  64 100 SE13      30.14F
CLOVIS AIRPORT FAIR      64  59  82 S13       30.14F

$$
NMZ028-029-538-270900-
SOUTHEAST PLAINS

CITY           SKY/WX    TMP DP  RH WIND       PRES   REMARKS
ROSWELL        FAIR      69  63  81 CALM      30.09F
ARTESIA        FAIR      70  68  94 S6        30.10F
CARLSBAD       FAIR      67  64  90 CALM      30.09S
HOBBS          FAIR      64  64 100 S6        30.13F


$$




USA.gov is the U.S. government's official web portal to all federal, state and local government web resources and services.